Lid_Strength_Index
10 11 13 10 9 9 11 12 13 11 8 9 9 9 8 7 8 8 8 7 7 7 5 3 3 3 3 3 3 3 3 3 2 3 3 3 3 3 2 2 1 1 1 1
12 14 10 9 9 11 12 12 12 10 9 10 10 9 8 7 7 7 7 8 8 6 5 4 3 4 4 4 3 3 3 3 3 3 3 3 3 3 3 2 2 2 1 1
13 11 9 10 9 11 12 12 12 12 10 9 10 11 9 7 7 7 7 7 6 6 5 5 4 4 4 4 3 3 3 3 3 3 3 3 3 3 3 2 2 2 0 1
12 10 10 10 11 10 12 9 10 10 11 14 9 15 11 9 9 8 8 8 7 6 5 4 4 5 4 4 3 3 3 3 3 2 3 4 4 4 3 3 3 2 1 1
13 11 11 12 11 9 10 8 10 10 11 13 12 14 12 10 10 8 8 7 7 6 5 5 4 4 4 4 3 3 3 3 3 3 3 4 4 3 3 3 3 3 2 2
10 8 9 10 9 9 7 9 9 10 11 16 12 13 12 12 9 9 7 7 6 6 5 5 4 4 4 4 3 3 3 3 3 2 3 3 3 3 4 3 3 3 3 2
10 10 9 8 10 9 8 11 16 17 17 17 11 13 11 9 8 8 7 7 6 5 5 5 5 5 5 4 3 3 4 4 3 2 3 3 3 3 4 3 3 3 3 3
14 14 10 8 10 11 11 11 15 19 19 16 11 15 11 9 8 7 6 6 6 6 5 5 5 5 5 4 4 3 4 3 3 2 3 3 3 2 3 3 3 3 3 3
14 14 9 8 8 9 11 13 11 14 14 16 14 12 9 9 8 7 7 7 6 6 6 5 5 5 6 4 4 4 4 4 3 3 3 3 2 2 3 3 3 3 3 2
12 14 10 8 8 8 10 9 14 15 18 20 15 14 13 11 10 8 8 8 7 7 6 5 5 5 6 4 4 3 4 3 3 3 3 3 2 2 3 2 3 3 2 2
10 13 11 9 11 12 12 12 13 12 13 17 18 15 11 10 9 9 8 7 7 7 6 5 5 5 5 4 4 4 4 3 3 3 3 3 2 2 2 1 1 2 3 2
10 13 14 12 10 8 10 12 12 13 15 14 14 14 9 9 8 7 7 6 7 6 6 5 5 6 5 4 4 4 4 3 3 3 3 3 3 2 2 1 2 2 2 2
10 12 16 14 12 10 11 11 11 12 13 14 15 14 9 8 7 7 7 7 6 6 6 6 6 5 4 5 4 4 3 3 3 3 3 3 3 2 3 2 2 1 1 2
10 12 13 15 13 11 12 11 10 11 14 14 12 13 10 9 9 8 7 7 7 6 6 5 6 5 4 4 3 3 3 3 3 3 3 3 3 2 3 2 2 2 1 2
13 14 12 11 10 10 10 11 10 11 11 12 12 12 10 9 8 7 7 7 7 7 6 6 6 6 5 4 3 3 3 4 3 3 4 3 3 3 3 2 2 2 2 2
13 16 12 12 10 11 12 11 10 9 10 11 11 11 8 8 6 7 7 7 7 7 6 6 5 6 5 4 3 3 3 4 3 3 3 3 2 3 2 3 2 2 3 3
15 14 14 14 11 12 14 12 10 9 9 10 12 11 9 9 9 7 7 7 6 6 6 6 5 5 5 4 3 3 4 5 2 3 2 2 2 3 2 3 3 3 4 4
15 15 14 15 13 17 12 9 9 9 9 8 10 9 8 8 7 7 5 6 6 6 5 5 5 5 5 4 3 3 4 5 2 3 2 2 2 3 3 3 3 3 3 3
12 14 15 17 14 13 11 10 10 10 11 9 8 9 8 8 8 8 5 5 5 5 5 5 4 5 5 4 4 3 4 5 3 3 2 2 2 2 3 3 3 3 4 4
12 12 14 16 17 16 12 9 8 8 12 9 8 9 9 8 10 9 6 4 5 5 5 5 4 5 5 4 4 3 5 5 4 3 2 2 2 3 3 3 4 3 3 4
14 13 15 16 17 13 9 8 7 13 12 9 8 8 9 9 8 7 7 4 4 4 5 4 4 5 5 4 4 4 4 5 4 3 2 2 3 3 3 3 3 3 3 3
15 16 16 15 16 16 7 8 11 10 9 8 8 8 8 8 7 7 6 4 5 5 5 4 4 5 5 4 4 4 5 4 3 3 2 3 3 2 2 3 3 3 3 4
15 14 14 14 14 9 8 8 8 7 8 7 7 7 6 7 6 6 6 5 4 4 5 4 4 5 5 4 4 4 4 4 3 4 3 4 3 2 2 2 3 3 3 4
12 11 13 12 10 11 9 8 8 6 7 6 6 6 6 6 6 6 6 5 4 4 4 4 4 5 5 5 4 4 4 3 3 4 4 4 3 3 2 2 2 2 3 4
12 11 12 12 11 10 9 9 9 9 7 6 5 6 6 6 6 6 6 4 4 4 4 3 4 5 5 5 5 4 3 3 3 4 4 4 4 2 2 2 2 2 2 3
10 12 14 13 10 11 10 9 8 9 9 6 6 6 5 5 6 6 6 4 4 4 3 4 4 4 4 5 5 4 3 3 3 4 3 4 4 3 2 2 4 10 7 8